Time,TemperatureF,DewpointF,PressureIn,WindDirection,WindDirectionDegrees,WindSpeedMPH,WindSpeedGustMPH,Humidity,HourlyPrecipIn,Conditions,Clouds,dailyrainin,SoftwareType,DateUTC
2013-04-25 00:11:00,46.3,45.0,30.06,East,94,2.0,3.0,94,0.01,,,0.15,weatherlink.com 1.10,2013-04-24 23:11:00,
2013-04-25 00:25:00,46.7,45.0,30.05,East,97,2.0,5.0,93,0.00,,,0.15,weatherlink.com 1.10,2013-04-24 23:25:00,
2013-04-25 00:40:00,46.9,45.0,30.04,East,90,2.0,5.0,93,0.00,,,0.15,weatherlink.com 1.10,2013-04-24 23:40:00,
2013-04-25 00:55:00,47.0,45.0,30.04,SE,124,2.0,4.0,93,0.01,,,0.16,weatherlink.com 1.10,2013-04-24 23:55:00,
2013-04-25 01:11:00,46.7,45.0,30.03,ESE,106,3.0,4.0,93,0.01,,,0.16,weatherlink.com 1.10,2013-04-25 00:11:00,
2013-04-25 01:26:00,46.4,45.0,30.02,East,100,3.0,4.0,94,0.01,,,0.16,weatherlink.com 1.10,2013-04-25 00:26:00,
2013-04-25 01:41:00,46.0,44.0,30.02,SE,129,4.0,8.0,94,0.01,,,0.16,weatherlink.com 1.10,2013-04-25 00:41:00,
2013-04-25 01:56:00,45.7,44.0,30.02,ENE,78,4.0,7.0,94,0.00,,,0.16,weatherlink.com 1.10,2013-04-25 00:56:00,
2013-04-25 02:11:00,45.4,44.0,30.01,East,81,3.0,5.0,94,0.00,,,0.16,weatherlink.com 1.10,2013-04-25 01:11:00,
2013-04-25 02:26:00,45.2,44.0,30.01,East,79,6.0,9.0,94,0.00,,,0.16,weatherlink.com 1.10,2013-04-25 01:26:00,
2013-04-25 02:41:00,45.3,44.0,30.01,South,173,5.0,6.0,95,0.01,,,0.01,weatherlink.com 1.10,2013-04-25 01:41:00,
2013-04-25 02:56:00,45.5,44.0,30.01,ESE,102,3.0,6.0,95,0.01,,,0.01,weatherlink.com 1.10,2013-04-25 01:56:00,
2013-04-25 03:11:00,45.5,44.0,30.00,East,82,5.0,7.0,95,0.02,,,0.02,weatherlink.com 1.10,2013-04-25 02:11:00,
2013-04-25 03:26:00,45.3,44.0,30.00,East,96,3.0,5.0,95,0.02,,,0.02,weatherlink.com 1.10,2013-04-25 02:26:00,
2013-04-25 03:41:00,45.0,44.0,29.99,East,86,6.0,6.0,95,0.02,,,0.03,weatherlink.com 1.10,2013-04-25 02:41:00,
2013-04-25 03:56:00,44.7,43.0,29.99,ESE,114,2.0,5.0,95,0.02,,,0.03,weatherlink.com 1.10,2013-04-25 02:56:00,
2013-04-25 04:26:00,44.5,44.0,29.97,ENE,69,4.0,7.0,96,0.02,,,0.05,weatherlink.com 1.10,2013-04-25 03:26:00,
2013-04-25 04:41:00,44.5,44.0,29.96,East,86,2.0,6.0,96,0.02,,,0.06,weatherlink.com 1.10,2013-04-25 03:41:00,
2013-04-25 04:56:00,44.5,44.0,29.96,SSE,152,2.0,5.0,96,0.04,,,0.07,weatherlink.com 1.10,2013-04-25 03:56:00,
2013-04-25 05:11:00,44.5,44.0,29.95,ESE,115,3.0,4.0,96,0.04,,,0.08,weatherlink.com 1.10,2013-04-25 04:11:00,
2013-04-25 05:26:00,44.5,44.0,29.95,ESE,108,3.0,4.0,96,0.02,,,0.08,weatherlink.com 1.10,2013-04-25 04:26:00,
2013-04-25 05:41:00,44.6,44.0,29.95,ESE,108,1.0,3.0,96,0.03,,,0.09,weatherlink.com 1.10,2013-04-25 04:41:00,
2013-04-25 05:56:00,44.6,44.0,29.95,East,92,2.0,3.0,96,0.02,,,0.09,weatherlink.com 1.10,2013-04-25 04:56:00,
2013-04-25 06:11:00,44.7,44.0,29.94,SE,139,3.0,4.0,96,0.04,,,0.12,weatherlink.com 1.10,2013-04-25 05:11:00,
2013-04-25 06:27:00,44.8,44.0,29.94,SE,143,0.0,2.0,97,0.06,,,0.13,weatherlink.com 1.10,2013-04-25 05:27:00,
2013-04-25 06:42:00,44.9,44.0,29.94,ENE,68,0.0,2.0,96,0.05,,,0.13,weatherlink.com 1.10,2013-04-25 05:42:00,
2013-04-25 06:57:00,45.1,44.0,29.95,NNW,345,0.0,1.0,97,0.06,,,0.16,weatherlink.com 1.10,2013-04-25 05:57:00,
2013-04-25 07:12:00,45.3,45.0,29.96,West,273,1.0,2.0,97,0.07,,,0.19,weatherlink.com 1.10,2013-04-25 06:12:00,
2013-04-25 07:27:00,45.1,44.0,29.95,NNW,339,1.0,3.0,96,0.09,,,0.23,weatherlink.com 1.10,2013-04-25 06:27:00,
2013-04-25 07:42:00,45.0,44.0,29.95,NNW,338,2.0,4.0,96,0.11,,,0.24,weatherlink.com 1.10,2013-04-25 06:42:00,
2013-04-25 07:57:00,45.0,44.0,29.95,WSW,241,1.0,4.0,96,0.10,,,0.26,weatherlink.com 1.10,2013-04-25 06:57:00,
2013-04-25 08:12:00,44.8,44.0,29.97,North,6,3.0,4.0,96,0.09,,,0.28,weatherlink.com 1.10,2013-04-25 07:12:00,
2013-04-25 08:27:00,44.5,44.0,29.97,NNW,334,1.0,6.0,96,0.07,,,0.30,weatherlink.com 1.10,2013-04-25 07:27:00,
2013-04-25 08:42:00,44.3,43.0,29.98,North,1,3.0,6.0,96,0.07,,,0.31,weatherlink.com 1.10,2013-04-25 07:42:00,
2013-04-25 08:57:00,44.4,43.0,29.98,WSW,253,3.0,5.0,96,0.06,,,0.32,weatherlink.com 1.10,2013-04-25 07:57:00,
2013-04-25 09:12:00,44.4,43.0,29.98,SSW,212,2.0,6.0,96,0.05,,,0.33,weatherlink.com 1.10,2013-04-25 08:12:00,
2013-04-25 09:27:00,44.6,44.0,29.98,WNW,288,0.0,3.0,96,0.03,,,0.33,weatherlink.com 1.10,2013-04-25 08:27:00,
2013-04-25 09:42:00,44.9,44.0,29.98,West,277,2.0,4.0,96,0.02,,,0.33,weatherlink.com 1.10,2013-04-25 08:42:00,
2013-04-25 09:57:00,45.3,44.0,29.98,SW,218,1.0,5.0,95,0.01,,,0.33,weatherlink.com 1.10,2013-04-25 08:57:00,
2013-04-25 10:12:00,45.5,44.0,29.98,SW,231,0.0,5.0,95,0.00,,,0.33,weatherlink.com 1.10,2013-04-25 09:12:00,
2013-04-25 10:27:00,45.9,45.0,29.99,North,4,3.0,7.0,95,0.00,,,0.33,weatherlink.com 1.10,2013-04-25 09:27:00,
2013-04-25 10:42:00,46.2,45.0,29.99,WNW,283,3.0,8.0,94,0.00,,,0.33,weatherlink.com 1.10,2013-04-25 09:42:00,
2013-04-25 10:57:00,46.1,44.0,29.99,NNE,20,2.0,7.0,92,0.00,,,0.33,weatherlink.com 1.10,2013-04-25 09:57:00,
2013-04-25 11:12:00,46.4,44.0,29.99,West,270,3.0,5.0,92,0.00,,,0.33,weatherlink.com 1.10,2013-04-25 10:12:00,
2013-04-25 11:27:00,46.5,44.0,29.99,WSW,245,2.0,5.0,90,0.00,,,0.33,weatherlink.com 1.10,2013-04-25 10:27:00,
2013-04-25 11:42:00,46.6,44.0,29.99,SSW,205,2.0,7.0,89,0.00,,,0.33,weatherlink.com 1.10,2013-04-25 10:42:00,
2013-04-25 11:57:00,46.4,43.0,29.99,SSE,168,1.0,7.0,89,0.00,,,0.33,weatherlink.com 1.10,2013-04-25 10:57:00,
2013-04-25 12:12:00,46.7,43.0,29.99,WSW,246,2.0,8.0,87,0.00,,,0.33,weatherlink.com 1.10,2013-04-25 11:12:00,
2013-04-25 12:27:00,47.5,43.0,29.99,WSW,249,1.0,6.0,85,0.00,,,0.33,weatherlink.com 1.10,2013-04-25 11:27:00,
2013-04-25 12:42:00,48.7,43.0,29.99,SW,226,7.0,8.0,80,0.00,,,0.33,weatherlink.com 1.10,2013-04-25 11:42:00,
2013-04-25 12:57:00,49.4,43.0,29.99,SW,217,1.0,9.0,79,0.00,,,0.33,weatherlink.com 1.10,2013-04-25 11:57:00,
2013-04-25 13:12:00,49.7,43.0,29.99,SW,219,2.0,11.0,77,0.00,,,0.33,weatherlink.com 1.10,2013-04-25 12:12:00,
2013-04-25 13:27:00,50.2,43.0,29.99,SW,228,2.0,9.0,76,0.00,,,0.33,weatherlink.com 1.10,2013-04-25 12:27:00,
2013-04-25 13:42:00,51.4,43.0,29.98,SSW,205,2.0,8.0,73,0.00,,,0.33,weatherlink.com 1.10,2013-04-25 12:42:00,
2013-04-25 13:58:00,52.4,43.0,29.98,West,261,2.0,6.0,70,0.00,,,0.33,weatherlink.com 1.10,2013-04-25 12:58:00,
2013-04-25 14:13:00,52.9,43.0,29.98,West,260,3.0,8.0,69,0.00,,,0.33,weatherlink.com 1.10,2013-04-25 13:13:00,
2013-04-25 14:28:00,52.3,42.0,29.98,NNE,30,3.0,10.0,68,0.00,,,0.33,weatherlink.com 1.10,2013-04-25 13:28:00,
2013-04-25 14:43:00,52.6,42.0,29.97,WSW,255,5.0,7.0,68,0.00,,,0.33,weatherlink.com 1.10,2013-04-25 13:43:00,
2013-04-25 14:58:00,52.8,42.0,29.98,SSW,194,0.0,4.0,67,0.00,,,0.33,weatherlink.com 1.10,2013-04-25 13:58:00,
2013-04-25 15:13:00,52.4,41.0,29.98,WSW,256,1.0,9.0,66,0.00,,,0.33,weatherlink.com 1.10,2013-04-25 14:13:00,
2013-04-25 15:28:00,53.9,42.0,29.97,NW,315,2.0,6.0,64,0.00,,,0.33,weatherlink.com 1.10,2013-04-25 14:28:00,
2013-04-25 15:43:00,55.1,41.0,29.97,NW,326,7.0,10.0,60,0.00,,,0.33,weatherlink.com 1.10,2013-04-25 14:43:00,
2013-04-25 15:58:00,54.8,43.0,29.97,WSW,237,5.0,11.0,64,0.01,,,0.34,weatherlink.com 1.10,2013-04-25 14:58:00,
2013-04-25 16:13:00,55.6,43.0,29.96,North,5,7.0,8.0,62,0.01,,,0.34,weatherlink.com 1.10,2013-04-25 15:13:00,
2013-04-25 16:28:00,55.3,40.0,29.96,NW,321,2.0,10.0,57,0.01,,,0.34,weatherlink.com 1.10,2013-04-25 15:28:00,
2013-04-25 16:43:00,55.4,39.0,29.96,North,10,4.0,6.0,55,0.01,,,0.34,weatherlink.com 1.10,2013-04-25 15:43:00,
2013-04-25 16:58:00,56.1,41.0,29.96,NNW,347,3.0,8.0,57,0.00,,,0.34,weatherlink.com 1.10,2013-04-25 15:58:00,
2013-04-25 17:13:00,55.0,41.0,29.96,North,352,4.0,9.0,59,0.00,,,0.34,weatherlink.com 1.10,2013-04-25 16:13:00,
2013-04-25 17:28:00,55.1,40.0,29.95,WNW,298,4.0,11.0,58,0.00,,,0.34,weatherlink.com 1.10,2013-04-25 16:28:00,
2013-04-25 17:43:00,54.7,41.0,29.95,East,92,2.0,14.0,60,0.00,,,0.34,weatherlink.com 1.10,2013-04-25 16:43:00,
2013-04-25 17:58:00,54.9,41.0,29.96,WSW,240,3.0,10.0,59,0.00,,,0.34,weatherlink.com 1.10,2013-04-25 16:58:00,
2013-04-25 18:13:00,52.8,41.0,29.96,NNW,333,4.0,10.0,64,0.00,,,0.34,weatherlink.com 1.10,2013-04-25 17:13:00,
2013-04-25 18:28:00,52.5,42.0,29.96,WNW,298,2.0,6.0,67,0.00,,,0.34,weatherlink.com 1.10,2013-04-25 17:28:00,
2013-04-25 18:43:00,53.3,41.0,29.96,NNE,27,7.0,7.0,63,0.00,,,0.34,weatherlink.com 1.10,2013-04-25 17:43:00,
2013-04-25 18:58:00,53.8,39.0,29.96,WNW,288,3.0,9.0,57,0.00,,,0.34,weatherlink.com 1.10,2013-04-25 17:58:00,
2013-04-25 19:13:00,52.2,40.0,29.97,SW,236,3.0,14.0,64,0.00,,,0.34,weatherlink.com 1.10,2013-04-25 18:13:00,
2013-04-25 19:28:00,50.8,39.0,29.97,NNW,335,2.0,12.0,65,0.00,,,0.34,weatherlink.com 1.10,2013-04-25 18:28:00,
2013-04-25 19:43:00,49.7,39.0,29.97,NE,40,1.0,7.0,66,0.00,,,0.34,weatherlink.com 1.10,2013-04-25 18:43:00,
2013-04-25 19:58:00,49.6,39.0,29.97,SW,224,1.0,5.0,66,0.00,,,0.34,weatherlink.com 1.10,2013-04-25 18:58:00,
2013-04-25 20:13:00,49.8,39.0,29.97,WSW,242,3.0,6.0,66,0.00,,,0.34,weatherlink.com 1.10,2013-04-25 19:13:00,
2013-04-25 20:28:00,49.7,39.0,29.98,SW,231,2.0,9.0,67,0.00,,,0.34,weatherlink.com 1.10,2013-04-25 19:28:00,
2013-04-25 20:43:00,49.5,40.0,29.98,West,262,2.0,7.0,69,0.00,,,0.34,weatherlink.com 1.10,2013-04-25 19:43:00,
2013-04-25 20:58:00,49.0,40.0,29.98,NW,304,3.0,5.0,70,0.00,,,0.34,weatherlink.com 1.10,2013-04-25 19:58:00,
2013-04-25 21:13:00,48.4,40.0,29.99,WSW,243,2.0,3.0,72,0.00,,,0.34,weatherlink.com 1.10,2013-04-25 20:13:00,
2013-04-25 21:28:00,47.9,40.0,29.99,West,260,0.0,4.0,74,0.00,,,0.34,weatherlink.com 1.10,2013-04-25 20:28:00,
2013-04-25 21:43:00,47.4,40.0,29.99,WNW,293,1.0,4.0,76,0.00,,,0.34,weatherlink.com 1.10,2013-04-25 20:43:00,
2013-04-25 21:58:00,47.1,40.0,29.99,WNW,284,1.0,5.0,76,0.00,,,0.34,weatherlink.com 1.10,2013-04-25 20:58:00,
2013-04-25 22:13:00,47.2,40.0,30.00,NE,39,3.0,6.0,75,0.00,,,0.34,weatherlink.com 1.10,2013-04-25 21:13:00,
2013-04-25 22:28:00,46.3,38.0,30.00,NW,325,3.0,9.0,73,0.00,,,0.34,weatherlink.com 1.10,2013-04-25 21:28:00,
2013-04-25 22:43:00,45.5,38.0,30.01,West,267,2.0,6.0,75,0.00,,,0.34,weatherlink.com 1.10,2013-04-25 21:43:00,
2013-04-25 22:58:00,45.1,38.0,30.01,SW,233,0.0,4.0,76,0.00,,,0.34,weatherlink.com 1.10,2013-04-25 21:58:00,
2013-04-25 23:13:00,44.7,38.0,30.01,WSW,243,2.0,3.0,78,0.00,,,0.34,weatherlink.com 1.10,2013-04-25 22:13:00,
2013-04-25 23:28:00,45.0,39.0,30.01,WNW,288,2.0,8.0,78,0.00,,,0.34,weatherlink.com 1.10,2013-04-25 22:28:00,
2013-04-25 23:43:00,45.0,38.0,30.00,SW,226,2.0,6.0,77,0.00,,,0.34,weatherlink.com 1.10,2013-04-25 22:43:00,
2013-04-25 23:58:00,44.7,38.0,30.01,West,274,3.0,6.0,77,0.00,,,0.34,weatherlink.com 1.10,2013-04-25 22:58:00,